Broomfield, CO

3:59 AM MDT on September 25, 2016 (GMT -0600)
Jeffco

Weather History for KBJC - September, 2013

Change the Weather History Date:

Tuesday, September 17, 2013

  Actual Average Record
Temperature  
Mean Temperature 70 °F -  
Max Temperature 84 °F 72 °F 93 °F (2000)
Min Temperature 55 °F 49 °F 39 °F (2003)
Cooling Degree Days 4    
Growing Degree Days 20 (Base 50)    
Moisture  
Dew Point 45 °F    
Average Humidity 54    
Maximum Humidity 88    
Minimum Humidity 14    
Precipitation  
Precipitation 0.00 in - - ()
Sea Level Pressure  
Sea Level Pressure 30.05 in    
Wind  
Wind Speed 2 mph (SW)    
Max Wind Speed 9 mph    
Max Gust Speed -    
Visibility 10 miles    
Events      
Averages and records for this station are not official NWS values.
T = Trace of Precipitation, MM = Missing Value Source: NWS Daily Summary

Daily Weather History Graph

Daily Weather History Graph

Search for Another Location

Airport or City:

Trip Planner

Search our weather history database for the weather conditions in past years. The results will help you decide how hot, cold, wet, or windy it might be!

Date:

Astronomy

Sep. 17, 2013 Rise Set
Actual Time 6:43 AM MDT 7:05 PM MDT
Civil Twilight 6:16 AM MDT 7:32 PM MDT
Nautical Twilight 5:44 AM MDT 8:04 PM MDT
Astronomical Twilight 5:12 AM MDT 8:36 PM MDT
Moon 5:53 PM MDT (9/17) 4:41 AM MDT (9/17)
Length of Visible Light 13h 15m
Length of Day
12h 21m
Waxing Gibbous, 96% of the Moon is Illuminated
Sep 17
Waxing Gibbous
Sep 19
Full
Sep 26
Last Quarter
Oct 4
New
Oct 11
First Quarter

Hourly Weather History & Observations

Time (MDT) Temp. Dew Point Humidity Pressure Visibility Wind Dir Wind Speed Gust Speed Precip Events Conditions
12:15 AM 59.0 °F 53.6 °F 82% 30.13 in 10.0 mi Calm Calm - N/A   Clear
12:35 AM 59.0 °F 53.6 °F 82% 30.13 in 10.0 mi Calm Calm - N/A   Clear
12:55 AM 60.8 °F 53.6 °F 77% 30.13 in 10.0 mi Calm Calm - N/A   Clear
1:15 AM 57.2 °F 53.6 °F 88% 30.12 in 10.0 mi Calm Calm - N/A   Clear
1:35 AM 60.8 °F 53.6 °F 77% 30.12 in 10.0 mi Calm Calm - N/A   Clear
1:55 AM 59.0 °F 53.6 °F 82% 30.12 in 10.0 mi Calm Calm - N/A   Clear
2:15 AM 55.4 °F 51.8 °F 88% 30.12 in 10.0 mi Calm Calm - N/A   Clear
2:35 AM 55.4 °F 50.0 °F 82% 30.11 in 10.0 mi West 4.6 mph - N/A   Clear
2:54 AM 55.4 °F 50.0 °F 82% 30.10 in 10.0 mi West 8.1 mph - N/A   Clear
3:15 AM 55.4 °F 50.0 °F 82% 30.10 in 10.0 mi West 5.8 mph - N/A   Clear
3:35 AM 59.0 °F 46.4 °F 63% 30.09 in 10.0 mi West 5.8 mph - N/A   Clear
3:55 AM 59.0 °F 46.4 °F 63% 30.09 in 10.0 mi West 3.5 mph - N/A   Clear
4:15 AM 62.6 °F 42.8 °F 48% 30.09 in 10.0 mi Calm Calm - N/A   Clear
4:35 AM 60.8 °F 44.6 °F 55% 30.09 in 10.0 mi Calm Calm - N/A   Clear
4:55 AM 55.4 °F 46.4 °F 72% 30.09 in 10.0 mi Calm Calm - N/A   Clear
5:15 AM 57.2 °F 46.4 °F 67% 30.09 in 10.0 mi Calm Calm - N/A   Clear
5:35 AM 59.0 °F 46.4 °F 63% 30.09 in 10.0 mi Calm Calm - N/A   Clear
5:47 AM 59.0 °F 44.6 °F 59% 30.09 in 20.0 mi Calm Calm - N/A   Partly Cloudy
5:55 AM 59.0 °F 44.6 °F 59% 30.09 in 10.0 mi West 3.5 mph - N/A   Clear
6:47 AM 59.0 °F 42.8 °F 55% 30.09 in 70.0 mi West 5.8 mph - N/A   Partly Cloudy
7:53 AM 64.4 °F 46.4 °F 52% 30.09 in 70.0 mi Calm Calm - N/A   Partly Cloudy
8:47 AM 66.2 °F 50.0 °F 56% 30.09 in 70.0 mi Calm Calm - N/A   Partly Cloudy
9:47 AM 69.8 °F 50.0 °F 49% 30.09 in 70.0 mi SSE 4.6 mph - N/A   Partly Cloudy
10:47 AM 75.2 °F 46.4 °F 36% 30.08 in 30.0 mi SE 5.8 mph - N/A   Partly Cloudy
12:49 PM 80.6 °F 37.4 °F 21% 30.03 in 60.0 mi Variable 3.5 mph - N/A   Scattered Clouds
1:46 PM 82.4 °F 32.0 °F 16% 30.00 in 60.0 mi ESE 5.8 mph - N/A   Scattered Clouds
2:46 PM 82.4 °F 30.2 °F 15% 29.98 in 60.0 mi ESE 9.2 mph - N/A   Scattered Clouds
3:48 PM 84.2 °F 30.2 °F 14% 29.96 in 60.0 mi ESE 8.1 mph - N/A   Scattered Clouds
4:47 PM 82.4 °F 30.2 °F 15% 29.94 in 60.0 mi East 9.2 mph - N/A   Scattered Clouds
5:47 PM 80.6 °F 33.8 °F 18% 29.93 in 60.0 mi East 6.9 mph - N/A   Scattered Clouds
7:47 PM 73.4 °F 41.0 °F 31% 29.92 in 50.0 mi NNE 4.6 mph - N/A   Scattered Clouds
8:47 PM 73.4 °F 39.2 °F 29% 29.93 in 30.0 mi NW 6.9 mph - N/A   Scattered Clouds
9:47 PM 69.8 °F 41.0 °F 35% 29.92 in 30.0 mi West 9.2 mph - N/A   Scattered Clouds
11:14 PM 64.4 °F 42.8 °F 45% 29.92 in 10.0 mi South 4.6 mph - N/A   Clear
11:35 PM 64.4 °F 44.6 °F 49% 29.92 in 10.0 mi South 3.5 mph - N/A   Clear
11:55 PM 62.6 °F 44.6 °F 52% 29.92 in 10.0 mi NE 4.6 mph - N/A   Clear